Zacatecas Airport, Mexico

3:10 PM CDT on April 23, 2018 (GMT -0500)
Gen Leobardo C Ruiz International

Weather History for MMZC - December, 2012

Change the Weather History Date:

Wednesday, December 26, 2012

  Actual Average Record
Temperature  
Mean Temperature 50 °F -  
Max Temperature 68 °F 66 °F 73 °F (1998)
Min Temperature 32 °F 31 °F 15 °F (2006)
Degree Days  
Heating Degree Days 15    
Moisture  
Dew Point 19 °F    
Average Humidity 31    
Maximum Humidity 52    
Minimum Humidity 14    
Precipitation  
Precipitation 0.00 in - - ()
Sea Level Pressure  
Sea Level Pressure 30.15 in    
Wind  
Wind Speed 10 mph ()    
Max Wind Speed 23 mph    
Max Gust Speed 34 mph    
Visibility 10.0 miles    
Events      
Averages and records for this station are not official NWS values.
T = Trace of Precipitation, MM = Missing Value Source: Averaged Metar Reports

Daily Weather History Graph

Daily Weather History Graph

Search for Another Location

Airport or City:

Astronomy

Dec. 26, 2012 Rise Set
Actual Time 7:29 AM CST 6:13 PM CST
Civil Twilight 7:04 AM CST 6:38 PM CST
Nautical Twilight 6:36 AM CST 7:06 PM CST
Astronomical Twilight 6:09 AM CST 7:34 PM CST
Moon 5:06 PM CST (12/26) 5:57 AM CST (12/26)
Length of Visible Light 11h 33m
Length of Day
10h 44m
Waxing Gibbous, 97% of the Moon is Illuminated
Dec 26
Waxing Gibbous
Dec 28
Full
Jan 4
Last Quarter
Jan 11
New
Jan 18
First Quarter

Hourly Weather History & Observations

Time (CST) Temp. Windchill Dew Point Humidity Pressure Visibility Wind Dir Wind Speed Gust Speed Precip Events Conditions
2:41 AM 32.0 °F 26.4 °F 12.2 °F 44% 30.15 in 10.0 mi South 5.8 mph - N/A   Clear
3:40 AM 32.0 °F 25.6 °F 12.2 °F 44% 30.15 in 10.0 mi South 6.9 mph - N/A   Clear
4:40 AM 33.8 °F 26.4 °F 14.0 °F 44% 30.15 in 10.0 mi SSW 9.2 mph - N/A   Clear
5:40 AM 35.6 °F 27.5 °F 17.6 °F 48% 30.15 in 10.0 mi South 11.5 mph - N/A   Clear
6:40 AM 35.6 °F 29.2 °F 17.6 °F 48% 30.17 in 10.0 mi SSW 8.1 mph - N/A   Clear
7:42 AM 33.8 °F 27.7 °F 17.6 °F 52% 30.19 in 10.0 mi SSW 6.9 mph - N/A   Partly Cloudy
8:42 AM 41.0 °F 38.0 °F 21.2 °F 45% 30.19 in 10.0 mi SW 4.6 mph - N/A   Partly Cloudy
9:42 AM 53.6 °F - 28.4 °F 38% 30.20 in 10.0 mi South 11.5 mph - N/A   Partly Cloudy
10:41 AM 62.6 °F - 28.4 °F 27% 30.20 in 10.0 mi SSW 16.1 mph - N/A   Scattered Clouds
11:41 AM 64.4 °F - 28.4 °F 26% 30.20 in 10.0 mi SSW 23.0 mph - N/A   Scattered Clouds
12:41 PM 68.0 °F - 30.2 °F 24% 30.16 in 10.0 mi SSW 20.7 mph 32.2 mph N/A   Mostly Cloudy
1:41 PM 66.2 °F - 30.2 °F 26% 30.12 in 10.0 mi SW 23.0 mph - N/A   Mostly Cloudy
2:57 PM 66.2 °F - 24.8 °F 21% 30.09 in 10.0 mi WSW 17.3 mph 28.8 mph N/A   Mostly Cloudy
4:11 PM 64.4 °F - 19.4 °F 18% 30.09 in 10.0 mi WSW 23.0 mph 34.5 mph N/A   Mostly Cloudy
4:41 PM 64.4 °F - 21.2 °F 19% 30.09 in 10.0 mi SW 17.3 mph 28.8 mph N/A   Mostly Cloudy
6:00 PM 60.8 °F - 10.4 °F 14% 30.10 in 10.0 mi SW 11.5 mph 23.0 mph N/A   Mostly Cloudy
6:41 PM 55.4 °F - 10.4 °F 17% 30.12 in 10.0 mi WSW 13.8 mph - N/A   Overcast
7:47 PM 55.4 °F - 14.0 °F 20% 30.14 in 10.0 mi SSW 15.0 mph - N/A   Overcast
8:42 PM 51.8 °F - 15.8 °F 24% 30.15 in 10.0 mi South 11.5 mph - N/A   Overcast
9:51 PM 53.6 °F - 17.6 °F 24% 30.17 in 10.0 mi SSW 11.5 mph - N/A   Overcast
10:53 PM 50.0 °F - 17.6 °F 28% 30.17 in 10.0 mi SSW 12.7 mph - N/A   Overcast